Oslo Airport, Norway

12:14 AM CEST on August 18, 2017 (GMT +0200)
Gardermoen

Weather History for ENGM - July, 2013

Change the Weather History Date:

Saturday, July 20, 2013

  Actual Average Record
Temperature  
Mean Temperature 68 °F -  
Max Temperature 84 °F 67 °F 84 °F (2013)
Min Temperature 53 °F 50 °F 46 °F (1996)
Cooling Degree Days 4    
Growing Degree Days 18 (Base 50)    
Moisture  
Dew Point 47 °F    
Average Humidity 47    
Maximum Humidity 77    
Minimum Humidity 26    
Precipitation  
Precipitation 0.00 in 0.11 in - ()
Sea Level Pressure  
Sea Level Pressure 30.12 in    
Wind  
Wind Speed 3 mph ()    
Max Wind Speed 11 mph    
Max Gust Speed -    
Averages and records for this station are not official NWS values.
T = Trace of Precipitation, MM = Missing Value Source: Averaged Metar Reports

Daily Weather History Graph

Daily Weather History Graph

Search for Another Location

Airport or City:

Trip Planner

Search our weather history database for the weather conditions in past years. The results will help you decide how hot, cold, wet, or windy it might be!

Date:

Astronomy

Jul. 20, 2013 Rise Set
Actual Time 4:27 AM CEST 10:14 PM CEST
Civil Twilight 3:13 AM CEST 11:27 PM CEST
Nautical Twilight Sun does not set 12:49 AM CEST
Astronomical Twilight Sun does not set Sun does not set
Moon 7:57 PM CEST (7/20) 1:54 AM CEST (7/20)
Length of Visible Light 20h 13m
Length of Day
17h 47m
Waxing Gibbous, 92% of the Moon is Illuminated
Jul 20
Waxing Gibbous
Jul 22
Full
Jul 29
Last Quarter
Aug 6
New
Aug 14
First Quarter

Hourly Weather History & Observations

Time (CEST) Temp. Dew Point Humidity Pressure Visibility Wind Dir Wind Speed Gust Speed Precip Events Conditions
12:20 AM 60.8 °F 41.0 °F 48% 30.18 in - Calm Calm - N/A   Clear
12:50 AM 59.0 °F 42.8 °F 55% 30.18 in - SW 2.3 mph - N/A   Clear
1:20 AM 60.8 °F 41.0 °F 48% 30.18 in - SE 3.5 mph - N/A   Clear
1:50 AM 59.0 °F 41.0 °F 51% 30.18 in - Calm Calm - N/A   Clear
2:00 AM 58 °F 42 °F 43%  in 47 mi SE 2.2 mph - -   Partly Cloudy
2:20 AM 59.0 °F 44.6 °F 59% 30.18 in - North 1.2 mph - N/A   Clear
2:50 AM 57.2 °F 46.4 °F 67% 30.18 in - Calm Calm - N/A   Clear
3:20 AM 55.4 °F 44.6 °F 67% 30.15 in - Variable 2.3 mph - N/A   Clear
3:50 AM 55.4 °F 46.4 °F 72% 30.15 in - Calm Calm - N/A   Clear
4:20 AM 55.4 °F 46.4 °F 72% 30.15 in - Variable 2.3 mph - N/A   Clear
4:50 AM 55.4 °F 44.6 °F 67% 30.15 in - Variable 2.3 mph - N/A   Clear
5:20 AM 55.4 °F 44.6 °F 67% 30.15 in - Calm Calm - N/A   Clear
5:50 AM 55.4 °F 44.6 °F 67% 30.15 in - NE 3.5 mph - N/A   Clear
6:20 AM 53.6 °F 46.4 °F 77% 30.15 in - East 3.5 mph - N/A   Clear
6:50 AM 59.0 °F 44.6 °F 59% 30.15 in - Variable 2.3 mph - N/A   Clear
7:20 AM 59.0 °F 44.6 °F 59% 30.15 in - Variable 2.3 mph - N/A   Clear
7:50 AM 60.8 °F 44.6 °F 55% 30.15 in - SSW 4.6 mph - N/A   Clear
8:00 AM 61 °F 44 °F 43%  in 44 mi South 6.7 mph - -   Partly Cloudy
8:20 AM 62.6 °F 46.4 °F 55% 30.15 in - SSW 4.6 mph - N/A   Clear
8:50 AM 64.4 °F 46.4 °F 52% 30.15 in - SW 3.5 mph - N/A   Clear
9:20 AM 66.2 °F 46.4 °F 49% 30.15 in - SSW 3.5 mph - N/A   Clear
9:50 AM 68.0 °F 48.2 °F 49% 30.15 in - South 3.5 mph - N/A   Clear
10:20 AM 68.0 °F 48.2 °F 49% 30.15 in - Variable 3.5 mph - N/A   Clear
10:50 AM 71.6 °F 48.2 °F 43% 30.15 in - Variable 3.5 mph - N/A   Clear
11:20 AM 73.4 °F 50.0 °F 44% 30.15 in - North 6.9 mph - N/A   Clear
11:50 AM 73.4 °F 50.0 °F 44% 30.15 in - Variable 4.6 mph - N/A   Clear
12:20 PM 73.4 °F 50.0 °F 44% 30.15 in - Variable 4.6 mph - N/A   Clear
12:50 PM 75.2 °F 50.0 °F 41% 30.15 in - South 4.6 mph - N/A   Clear
1:20 PM 75.2 °F 51.8 °F 44% 30.15 in - Variable 3.5 mph - N/A   Clear
1:50 PM 77.0 °F 51.8 °F 41% 30.15 in - Variable 4.6 mph - N/A   Clear
2:00 PM 76 °F 51 °F 31%  in 44 mi SSW 6.7 mph - -   Partly Cloudy
2:20 PM 77.0 °F 51.8 °F 41% 30.12 in - Variable 6.9 mph - N/A   Clear
2:50 PM 78.8 °F 50.0 °F 36% 30.12 in - Variable 4.6 mph - N/A   Clear
3:20 PM 78.8 °F 50.0 °F 36% 30.09 in - West 4.6 mph - N/A   Clear
3:50 PM 78.8 °F 48.2 °F 34% 30.09 in - South 8.1 mph - N/A   Clear
4:20 PM 80.6 °F 48.2 °F 32% 30.09 in - South 8.1 mph - N/A   Clear
4:50 PM 80.6 °F 48.2 °F 32% 30.09 in - South 6.9 mph - N/A   Clear
5:20 PM 82.4 °F 44.6 °F 26% 30.09 in - Variable 5.8 mph - N/A   Clear
5:50 PM 82.4 °F 46.4 °F 28% 30.06 in - Variable 5.8 mph - N/A   Clear
6:20 PM 84.2 °F 46.4 °F 27% 30.06 in - West 6.9 mph - N/A   Clear
7:20 PM 82.4 °F 46.4 °F 28% 30.06 in - WSW 4.6 mph - N/A   Clear
7:50 PM 80.6 °F 50.0 °F 34% 30.06 in - SW 9.2 mph - N/A   Clear
8:00 PM 80 °F 52 °F 27%  in 47 mi SW 11.2 mph - -   Partly Cloudy
8:20 PM 78.8 °F 51.8 °F 39% 30.06 in - SW 10.4 mph - N/A   Clear
8:50 PM 77.0 °F 51.8 °F 41% 30.06 in - SW 8.1 mph - N/A   Clear
9:20 PM 75.2 °F 53.6 °F 47% 30.06 in - SW 5.8 mph - N/A   Clear
9:50 PM 73.4 °F 53.6 °F 50% 30.06 in - SW 5.8 mph - N/A   Clear
10:20 PM 71.6 °F 50.0 °F 46% 30.06 in - WSW 4.6 mph - N/A   Clear
10:50 PM 71.6 °F 46.4 °F 41% 30.06 in - NW 4.6 mph - N/A   Clear
11:20 PM 71.6 °F 42.8 °F 35% 30.09 in - North 4.6 mph - N/A   Clear
11:50 PM 68.0 °F 44.6 °F 43% 30.09 in - North 8.1 mph - N/A   Clear